Location: College Park
(38.9810°N, 76.9370°W)
Time: 02:27:31
(UTC-05:00)

N. Korean satellite - Pass Details

Date: 04 January 2018
Orbit: 459 x 515 km, 97.2° (Epoch: 15 January)

Event Time Altitude Azimuth Distance (km) Brightness Sun altitude
Rises 17:26:32 0° 143° (SE) 2,614 10.1 -5.6°
Reaches altitude 10° 17:28:49 10° 132° (SE) 1,728 9.1 -6.0°
Maximum altitude 17:32:02 28° 72° (ENE) 980 7.5 -6.6°
Drops below altitude 10° 17:35:14 10° 12° (NNE) 1,721 9.0 -7.2°
Sets 17:37:30 0° 1° (N) 2,601 10.0 -7.6°
